Weather reports worldwide

Advertisment
Nottingham/Watnall, United Kingdom (3354): temperature & dewpoint: 10.07.2020 04:00:00 - 16.07.2020 04:00:00 (BST)Nottingham/Watnall, United Kingdom (3354): temperature -20cm & temperature -100cm: 10.07.2020 04:00:00 - 16.07.2020 04:00:00 (BST)Nottingham/Watnall, United Kingdom (3354): wind speed: 10.07.2020 04:00:00 - 16.07.2020 04:00:00 (BST)Nottingham/Watnall, United Kingdom (3354): wind direction: 10.07.2020 04:00:00 - 16.07.2020 04:00:00 (BST)Nottingham/Watnall, United Kingdom (3354): reduced air pressure: 10.07.2020 04:00:00 - 16.07.2020 04:00:00 (BST)Nottingham/Watnall, United Kingdom (3354): visibility: 10.07.2020 04:00:00 - 16.07.2020 04:00:00 (BST)Nottingham/Watnall, United Kingdom (3354): sunshine duration: 10.07.2020 04:00:00 - 16.07.2020 04:00:00 (BST)Nottingham/Watnall, United Kingdom (3354): precipitation: 10.07.2020 04:00:00 - 16.07.2020 04:00:00 (BST)
Date & Time tt [°C] td [°C] tt -20cm [°C] tt -100cm [°C] ff [km/h] ff [kn] dd ppp [hPa] vv [km] sd [min] rr [mm]
16.07.2020 04:00:00 14,3 12,0 - - 13 7 WNW 1017,3 28 0 0,0
16.07.2020 03:00:00 14,5 12,0 - - 8 4 W 1017,1 65 0 0,0
16.07.2020 02:00:00 14,6 11,9 - - 9 5 WNW 1017,2 50 0 0,0
16.07.2020 01:00:00 14,5 11,9 - - 9 5 W 1017,1 50 - 0,0
16.07.2020 00:00:00 14,4 11,7 - - 5 3 WSW 1017,1 45 0 0,0
15.07.2020 23:00:00 14,4 11,7 - - 8 4 W 1016,9 40 0 0,0
15.07.2020 22:00:00 14,5 11,8 - - 18 10 W 1016,5 40 0 0,0
15.07.2020 21:00:00 14,8 11,7 - - 13 7 W 1016,1 45 0 0,0
15.07.2020 20:00:00 15,1 11,6 - - 13 7 W 1015,9 45 0 0,0
15.07.2020 19:00:00 15,3 11,5 - - 11 6 W 1015,6 60 0 0,0
15.07.2020 18:00:00 14,9 12,3 - - 13 7 W 1015,3 70 0 0,0
15.07.2020 17:00:00 14,3 12,2 - - 11 6 W 1015,5 9 0 0,0
15.07.2020 16:00:00 14,6 12,0 - - 15 8 W 1015,3 27 0 0,0
15.07.2020 15:00:00 15,2 12,3 - - 13 7 W 1015,2 55 0 0,0
15.07.2020 14:00:00 15,0 11,7 - - 13 7 W 1015,2 25 0 0,0
15.07.2020 13:00:00 15,2 12,4 - - 11 6 W 1015,1 26 0 0,2
15.07.2020 12:00:00 14,7 11,6 - - 15 8 W 1015,0 13 0 0,0
15.07.2020 11:00:00 14,0 11,9 - - 13 7 WSW 1014,9 22 0 0,0
15.07.2020 10:00:00 13,6 12,5 16,0 15,2 11 6 WSW 1014,9 11 0 0,0
15.07.2020 09:00:00 13,1 11,9 - - 13 7 WSW 1014,6 8 0 0,0
15.07.2020 08:00:00 12,8 11,4 - - 11 6 WSW 1014,6 30 0 0,0
15.07.2020 07:00:00 12,4 10,7 - - 13 7 WSW 1014,5 50 0 0,0
15.07.2020 06:00:00 12,1 10,5 - - 11 6 W 1014,6 45 0 0,0
15.07.2020 05:00:00 12,0 10,3 - - 11 6 W 1014,5 50 0 0,0
15.07.2020 04:00:00 12,1 10,0 - - 13 7 WSW 1014,6 40 0 0,0
15.07.2020 03:00:00 12,3 10,1 - - 9 5 WSW 1015,1 30 0 0,0
15.07.2020 02:00:00 12,4 9,8 - - 11 6 W 1015,4 40 0 0,0
15.07.2020 01:00:00 12,1 9,4 - - 8 4 W 1015,7 45 - 0,0
15.07.2020 00:00:00 11,6 8,8 - - 4 2 WSW 1016,1 45 0 0,0
14.07.2020 23:00:00 11,8 8,6 - - 5 3 W 1016,1 50 0 0,0
14.07.2020 22:00:00 12,8 8,6 - - 11 6 W 1016,0 55 0 0,0
14.07.2020 21:00:00 13,7 8,5 - - 11 6 W 1015,9 55 6 0,0
14.07.2020 20:00:00 14,7 7,7 - - 11 6 WNW 1015,7 70 24 0,0
14.07.2020 19:00:00 15,0 8,3 - - 13 7 WNW 1015,8 70 0 0,0
14.07.2020 18:00:00 15,2 8,6 - - 13 7 WNW 1016,1 55 0 0,0
14.07.2020 17:00:00 15,4 9,1 - - 13 7 WNW 1016,2 65 0 0,0
14.07.2020 16:00:00 16,9 9,5 - - 15 8 WNW 1016,1 55 0 0,0
14.07.2020 15:00:00 16,8 9,2 - - 15 8 WNW 1016,2 75 6 0,0
14.07.2020 14:00:00 16,2 8,9 - - 13 7 WNW 1016,4 60 6 0,0
14.07.2020 13:00:00 17,0 9,6 - - 15 8 W 1016,2 55 24 0,0
14.07.2020 12:00:00 15,5 8,7 - - 16 9 W 1016,8 75 0 0,0
14.07.2020 11:00:00 15,2 8,2 - - 15 8 WNW 1017,1 60 0 0,0
14.07.2020 10:00:00 15,1 8,9 16,2 15,2 11 6 NW 1017,3 75 0 0,0
14.07.2020 09:00:00 14,9 9,3 - - 15 8 NW 1017,0 70 36 0,0
14.07.2020 08:00:00 13,7 8,2 - - 15 8 NW 1017,4 65 30 0,0
14.07.2020 07:00:00 13,8 8,4 - - 13 7 NW 1017,4 75 12 0,0
14.07.2020 06:00:00 13,8 11,3 - - 9 5 NW 1017,2 45 0 0,0
14.07.2020 05:00:00 14,0 11,7 - - 5 3 WNW 1017,1 40 0 0,0
14.07.2020 04:00:00 14,3 11,5 - - 8 4 W 1017,2 55 0 0,0
14.07.2020 03:00:00 14,3 11,3 - - 5 3 W 1017,6 60 0 0,0
14.07.2020 02:00:00 14,6 11,3 - - 8 4 W 1017,6 50 0 0,0
14.07.2020 01:00:00 15,0 11,5 - - 8 4 W 1017,7 4,5 - 0,0
14.07.2020 00:00:00 15,5 11,4 - - 8 4 W 1018,0 65 0 0,0
13.07.2020 23:00:00 15,8 11,1 - - 8 4 WNW 1018,2 70 0 0,0
13.07.2020 22:00:00 16,5 12,4 - - 8 4 WNW 1018,2 45 0 0,0
13.07.2020 21:00:00 17,0 13,3 - - 8 4 WNW 1018,2 45 0 0,0
13.07.2020 20:00:00 17,2 14,6 - - 13 7 SW 1017,9 70 0 0,0
13.07.2020 19:00:00 17,5 14,4 - - 15 8 WSW 1018,1 75 0 0,0
13.07.2020 18:00:00 18,0 13,9 - - 16 9 WSW 1018,6 70 0 0,0
13.07.2020 17:00:00 17,8 13,7 - - 15 8 WSW 1019,3 75 0 0,0
13.07.2020 16:00:00 18,0 13,8 - - 16 9 SW 1019,4 70 0 0,0
13.07.2020 15:00:00 18,0 13,3 - - 18 10 SW 1020,4 65 0 0,0
13.07.2020 14:00:00 18,3 13,1 - - 18 10 SW 1020,8 45 0 0,0
13.07.2020 13:00:00 18,5 12,4 - - 21 11 SW 1021,1 65 18 0,0
13.07.2020 12:00:00 19,1 12,7 - - 15 8 WSW 1021,7 75 24 0,0
13.07.2020 11:00:00 16,5 10,8 - - 15 8 SW 1022,6 65 0 0,0
13.07.2020 10:00:00 16,1 10,9 16,2 15,0 15 8 WSW 1022,9 70 0 0,0
13.07.2020 09:00:00 15,8 9,7 - - 16 9 WSW 1022,9 75 6 0,0
13.07.2020 08:00:00 15,0 8,3 - - 15 8 WSW 1023,1 75 12 0,0
13.07.2020 07:00:00 14,5 8,7 - - 11 6 SW 1023,4 60 0 0,0
13.07.2020 06:00:00 14,0 9,0 - - 11 6 WSW 1023,7 60 0 0,0
13.07.2020 05:00:00 13,9 9,0 - - 11 6 WSW 1023,5 65 0 0,0
13.07.2020 04:00:00 13,9 8,3 - - 9 5 WSW 1024,0 60 0 0,0
13.07.2020 03:00:00 13,9 7,6 - - 5 3 WSW 1024,9 65 0 0,0
13.07.2020 02:00:00 14,9 7,6 - - 5 3 SW 1025,3 65 0 0,0
13.07.2020 01:00:00 15,4 8,5 - - 5 3 SW 1025,4 50 - 0,0
13.07.2020 00:00:00 15,4 8,1 - - 5 3 W 1025,8 50 0 0,0
12.07.2020 23:00:00 15,9 8,5 - - 8 4 W 1025,8 65 0 0,0
12.07.2020 22:00:00 16,2 8,4 - - 2 1 WSW 1025,9 65 0 0,0
12.07.2020 21:00:00 19,2 7,3 - - 4 2 SW 1025,5 75 42 0,0
12.07.2020 20:00:00 20,0 7,5 - - 9 5 W 1025,7 75 30 0,0
12.07.2020 19:00:00 20,2 7,0 - - 9 5 W 1025,9 75 48 0,0
12.07.2020 18:00:00 20,8 7,3 - - 9 5 W 1026,2 60 60 0,0
12.07.2020 17:00:00 20,3 7,6 - - 11 6 WSW 1026,6 75 60 0,0
12.07.2020 16:00:00 20,0 7,7 - - 9 5 SW 1027,1 75 60 0,0
12.07.2020 15:00:00 19,1 7,2 - - 9 5 W 1027,7 75 60 0,0
12.07.2020 14:00:00 18,0 7,2 - - 9 5 WNW 1028,3 70 54 0,0
12.07.2020 13:00:00 17,5 7,3 - - 9 5 W 1028,6 75 42 0,0
12.07.2020 12:00:00 16,8 7,4 - - 8 4 SSW 1028,9 21 48 0,0
12.07.2020 11:00:00 16,3 8,0 - - 8 4 SSE 1029,0 24 54 0,0
12.07.2020 10:00:00 15,9 6,9 15,2 15,0 4 2 ESE 1029,2 75 48 0,0
12.07.2020 09:00:00 14,4 7,8 - - 2 1 NE 1029,4 75 60 0,0
12.07.2020 08:00:00 11,7 8,5 - - 8 4 WNW 1029,3 50 60 0,0
12.07.2020 07:00:00 9,9 7,6 - - 5 3 W 1029,1 45 60 0,0
12.07.2020 06:00:00 7,8 6,5 - - 8 4 W 1029,0 35 30 0,0
12.07.2020 05:00:00 7,3 5,5 - - 8 4 WNW 1028,7 28 0 0,0
12.07.2020 04:00:00 9,0 6,9 - - 9 5 WNW 1028,5 40 0 0,0
12.07.2020 03:00:00 9,4 7,2 - - 9 5 WNW 1028,8 45 0 0,0
12.07.2020 02:00:00 9,7 6,9 - - 8 4 WNW 1028,9 40 0 0,0
12.07.2020 01:00:00 10,3 7,0 - - 8 4 WNW 1029,0 50 - 0,0
12.07.2020 00:00:00 10,6 7,0 - - 8 4 WNW 1028,8 35 0 0,0
11.07.2020 23:00:00 11,4 6,8 - - 8 4 WNW 1028,8 65 0 0,0
11.07.2020 22:00:00 12,7 6,3 - - 8 4 W 1028,7 60 0 0,0
11.07.2020 21:00:00 14,2 6,3 - - 5 3 WNW 1028,1 75 48 0,0
11.07.2020 20:00:00 16,2 6,8 - - 15 8 WNW 1027,6 75 42 0,0
11.07.2020 19:00:00 17,0 6,8 - - 8 4 NW 1027,5 75 18 0,0
11.07.2020 18:00:00 16,9 5,4 - - 11 6 NW 1027,2 75 30 0,0
11.07.2020 17:00:00 17,5 5,7 - - 13 7 WNW 1027,3 75 24 0,0
11.07.2020 16:00:00 18,4 7,5 - - 13 7 NW 1027,0 70 54 0,0
11.07.2020 15:00:00 17,7 8,2 - - 16 9 WNW 1027,0 60 36 0,0
11.07.2020 14:00:00 15,8 6,4 - - 15 8 NW 1027,3 75 6 0,0
11.07.2020 13:00:00 16,2 9,1 - - 13 7 WNW 1027,1 70 6 0,0
11.07.2020 12:00:00 16,7 8,0 - - 16 9 NW 1026,7 50 30 0,0
11.07.2020 11:00:00 15,2 8,3 - - 15 8 NW 1026,6 50 30 0,0
11.07.2020 10:00:00 14,6 8,2 15,0 15,2 15 8 WNW 1026,2 35 42 0,0
11.07.2020 09:00:00 14,5 8,7 - - 15 8 WNW 1025,6 40 60 0,0
11.07.2020 08:00:00 13,1 9,0 - - 11 6 W 1025,3 40 60 0,0
11.07.2020 07:00:00 11,4 8,8 - - 8 4 W 1024,9 35 60 0,0
11.07.2020 06:00:00 9,6 8,0 - - 9 5 W 1024,6 30 24 0,0
11.07.2020 05:00:00 9,4 7,7 - - 9 5 W 1024,2 29 0 0,0
11.07.2020 04:00:00 10,0 7,9 - - 11 6 W 1023,8 30 0 0,0
11.07.2020 03:00:00 10,0 7,8 - - 9 5 W 1023,7 40 0 0,0
11.07.2020 02:00:00 10,5 8,0 - - 9 5 W 1023,4 40 0 0,0
11.07.2020 01:00:00 11,3 7,9 - - 15 8 WNW 1023,3 45 - 0,0
11.07.2020 00:00:00 11,2 7,9 - - 9 5 WNW 1022,9 50 0 0,0
10.07.2020 23:00:00 11,4 7,8 - - 9 5 W 1022,6 45 0 0,0
10.07.2020 22:00:00 12,4 7,3 - - 5 3 W 1022,1 50 0 0,0
10.07.2020 21:00:00 14,0 7,1 - - 15 8 WNW 1021,3 55 48 0,0
10.07.2020 20:00:00 15,7 7,3 - - 16 9 WNW 1020,7 55 24 0,0
10.07.2020 19:00:00 14,0 10,2 - - 2 1 W 1020,4 65 0 0,0
10.07.2020 18:00:00 12,8 10,4 - - 5 3 NNE 1020,0 70 0 0,0
10.07.2020 17:00:00 16,3 9,1 - - 18 10 WNW 1019,0 40 12 0,0
10.07.2020 16:00:00 17,2 10,4 - - 18 10 W 1018,4 45 24 0,0
10.07.2020 15:00:00 16,4 9,6 - - 21 11 W 1018,2 45 42 0,0
10.07.2020 14:00:00 15,3 10,8 - - 16 9 WSW 1018,1 24 12 0,0
10.07.2020 13:00:00 13,1 9,6 - - 13 7 WNW 1018,2 30 0 0,0
10.07.2020 12:00:00 14,7 8,1 - - 16 9 WNW 1017,5 50 12 -
10.07.2020 11:00:00 14,4 8,3 - - 15 8 WNW 1017,1 55 24 -
10.07.2020 10:00:00 14,1 8,7 15,0 15,2 15 8 WNW 1016,4 40 36 0,0
10.07.2020 09:00:00 12,3 9,0 - - 13 7 WNW 1016,0 40 12 0,0
10.07.2020 08:00:00 11,3 8,9 - - 16 9 WNW 1015,7 30 30 0,0
10.07.2020 07:00:00 10,0 8,8 - - 8 4 WNW 1015,4 40 0 0,0
10.07.2020 06:00:00 10,8 9,9 - - 8 4 W 1014,9 35 0 0,2
10.07.2020 05:00:00 11,1 10,8 - - 4 2 WSW 1014,4 5 0 0,2
10.07.2020 04:00:00 11,0 10,7 - - 4 2 W 1014,4 5 0 0,0

tt = temperature
td = dewpoint
tt -20cm = temperature -20cm
tt -100cm = temperature -100cm
ff = wind speed
dd = wind direction
ppp = reduced air pressure
vv = visibility
sd = sunshine duration
rr = precipitation

Next stations